EW4415 Weather Reports


Display with metric or nautical units.
time (UTC)temp
F
wind
direction
speed
MPH
gust
MPH
rain 1hr
in
rain 24hr
in
rain mn
in
humidity
%
barometer
mb
20260504023030 45 181 0.0 0.0 0.00 0.00 0.00 1 1005.7
20260504021525 46 181 0.0 0.0 0.00 0.00 0.00 1 1005.7
20260504020033 46 181 0.0 0.0 0.00 0.00 0.00 1 1005.9
20260504014516 47 181 0.0 0.0 0.00 0.00 0.00 1 1005.9
20260504013019 47 181 0.0 0.0 0.00 0.00 0.00 1 1006.1
20260504011507 47 181 0.0 0.0 0.00 0.00 0.00 1 1006.2
20260504010002 48 181 0.0 0.0 0.00 0.00 0.00 1 1006.2
20260504004558 48 181 0.0 0.0 0.00 0.00 0.00 1 1006.4
20260504003054 48 181 0.0 0.0 0.00 0.00 0.00 1 1006.4
20260504001557 48 181 0.0 0.0 0.00 0.00 0.00 1 1006.3
20260504000046 48 181 0.0 0.0 0.00 0.00 0.00 1 1006.6
20260503234542 48 181 0.0 0.0 0.00 0.00 0.00 1 1006.6
20260503233036 48 181 0.0 0.0 0.00 0.00 0.00 1 1006.6
20260503231532 49 181 0.0 0.0 0.00 0.00 0.00 1 1006.6
20260503230038 49 181 0.0 0.0 0.00 0.00 0.00 1 1006.7
20260503224524 49 181 0.0 0.0 0.00 0.00 0.00 1 1006.8
20260503223020 49 181 0.0 0.0 0.00 0.00 0.00 1 1006.8
20260503221516 49 181 0.0 0.0 0.00 0.00 0.00 1 1006.9
20260503220020 49 181 0.0 0.0 0.00 0.00 0.00 1 1006.9
20260503214514 49 181 0.0 0.0 0.00 0.00 0.00 1 1007.0
20260503213002 49 181 0.0 0.0 0.00 0.00 0.00 1 1007.0
20260503211558 49 181 0.0 0.0 0.00 0.00 0.00 1 1007.1
20260503210053 49 181 0.0 0.0 0.00 0.00 0.00 1 1007.1
20260503204548 49 181 0.0 0.0 0.00 0.00 0.00 1 1007.2
20260503203047 49 181 0.0 0.0 0.00 0.00 0.00 1 1007.2
20260503201544 49 181 0.0 0.0 0.00 0.00 0.00 1 1007.3
20260503200035 49 181 0.0 0.0 0.00 0.00 0.00 1 1007.4
20260503194537 50 181 0.0 0.0 0.00 0.00 0.00 1 1007.4
20260503193027 50 181 0.0 0.0 0.00 0.00 0.00 1 1007.3
20260503191522 50 181 0.0 0.0 0.00 0.00 0.00 8 1007.4
20260503190017 50 181 0.0 0.0 0.00 0.00 0.00 12 1007.5
20260503184513 50 181 0.0 0.0 0.00 0.00 0.00 15 1007.5
20260503183009 50 181 0.0 0.0 0.00 0.00 0.00 14 1007.4
20260503181515 51 181 0.0 0.0 0.00 0.00 0.00 19 1007.2
20260503180100 51 181 0.0 0.0 0.00 0.00 0.00 29 1007.3
20260503174611 52 181 0.0 0.0 0.00 0.00 0.00 31 1007.3
20260503173055 52 181 0.0 0.0 0.00 0.00 0.00 34 1007.3
20260503171550 52 181 0.0 0.0 0.00 0.00 0.00 35 1007.3
20260503081511 55 313 0.0 1.0 0.00 0.00 0.00 52 1006.9
20260503071553 51 300 0.0 0.0 0.00 0.00 0.00 42 1006.6
20260503054535 48 257 0.0 0.0 0.00 0.00 0.00 14 1005.8
20260503053022 47 261 0.0 0.0 0.00 0.00 0.00 7 1005.5
20260503051517 47 258 0.0 0.0 0.00 0.00 0.00 4 1005.6
20260503050013 46 221 0.0 1.0 0.00 0.00 0.00 1 1005.5
20260503044509 46 286 0.0 3.0 0.00 0.00 0.00 1 1005.5
20260503043005 46 291 0.0 3.0 0.00 0.00 0.00 1 1005.5
20260503041613 44 264 0.0 0.0 0.00 0.00 0.00 1 1005.0
20260503040055 43 86 0.0 0.0 0.00 0.00 0.00 1 1005.2
20260503034551 43 87 0.0 0.0 0.00 0.00 0.00 1 1005.2
20260503033103 43 86 0.0 0.0 0.00 0.00 0.00 1 1005.2
20260503031542 43 86 0.0 0.0 0.00 0.00 0.00 1 1005.1
20260503030038 43 288 0.0 0.0 0.00 0.00 0.00 1 1005.3
20260503024538 43 309 0.0 0.0 0.00 0.00 0.00 1 1005.4